Location: Hilton Head Island
(32.2163°N, 80.7526°W)
Time: 20:57:15
(UTC-04:00)

Vanguard 2 Rocket - Pass Details

Date: 21 February 2026
Orbit: 553 x 3286 km, 32.9° (Epoch: 10 March)

Event Time Altitude Azimuth Distance (km) Brightness Sun altitude
Rises 18:24:00 0° 285° (WNW) 5,961 12.4 -2.8°
Reaches altitude 10° 18:29:07 10° 277° (W) 4,460 12.0 -3.9°
Maximum altitude 18:38:19 30° 222° (SW) 2,263 9.6 -5.8°
Drops below altitude 10° 18:44:12 10° 163° (SSE) 2,775 9.3 -7.1°
Sets 18:46:38 0° 151° (SSE) 3,454 9.7 -7.6°
